Weather History for KMCB - November, 2014

Change the Weather History Date:

Wednesday, November 12, 2014

  Actual Average Record
Temperature  
Mean Temperature 48 °F -  
Max Temperature 54 °F - - ()
Min Temperature 39 °F - - ()
Degree Days  
Heating Degree Days 18    
Moisture  
Dew Point 42 °F    
Average Humidity 87    
Maximum Humidity 93    
Minimum Humidity 73    
Precipitation  
Precipitation 0.20 in - - ()
Sea Level Pressure  
Sea Level Pressure 30.16 in    
Wind  
Wind Speed 10 mph (North)    
Max Wind Speed 15 mph    
Max Gust Speed 24 mph    
Visibility 7 miles    
Events Rain    
T = Trace of Precipitation, MM = Missing Value Source: NWS Daily Summary

Daily Weather History Graph

Daily Weather History Graph

Search for Another Location

Airport or City:

Trip Planner

Search our weather history database for the weather conditions in past years. The results will help you decide how hot, cold, wet, or windy it might be!

Date:

Astronomy

Nov. 12, 2014 Rise Set
Actual Time 6:26 AM CST 5:05 PM CST
Civil Twilight 6:00 AM CST 5:30 PM CST
Nautical Twilight 5:31 AM CST 5:59 PM CST
Astronomical Twilight 5:03 AM CST 6:28 PM CST
Moon 10:22 PM CST (11/12) 11:13 AM CST (11/12)
Length of Visible Light 11h 29m
Length of Day
10h 38m
Waning Gibbous, 68% of the Moon is Illuminated
Nov 12
Waning Gibbous
Nov 14
Last Quarter
Nov 22
New
Nov 29
First Quarter
Dec 6
Full

Hourly Weather History & Observations

Time (CST) Temp. Windchill Dew Point Humidity Pressure Visibility Wind Dir Wind Speed Gust Speed Precip Events Conditions
12:53 AM 54.0 °F - 50.0 °F 86% 30.06 in 8.0 mi North 11.5 mph - 0.00 in Rain Light Rain
1:53 AM 52.0 °F - 48.0 °F 86% 30.07 in 10.0 mi North 6.9 mph - 0.00 in   Overcast
2:53 AM 48.9 °F - 45.0 °F 86% 30.08 in 10.0 mi North 12.7 mph - 0.00 in   Overcast
3:50 AM 48.2 °F - 44.6 °F 87% 30.10 in 10.0 mi North 9.2 mph - N/A   Overcast
3:53 AM 48.0 °F - 44.1 °F 86% 30.09 in 10.0 mi North 9.2 mph - N/A   Overcast
4:53 AM 46.9 °F - 45.0 °F 93% 30.11 in 7.0 mi NNW 6.9 mph - 0.03 in Rain Light Rain
5:53 AM 46.0 °F 41.0 °F 44.1 °F 93% 30.12 in 4.0 mi North 10.4 mph - 0.02 in Rain Light Rain
6:53 AM 46.0 °F 41.4 °F 44.1 °F 93% 30.13 in 4.0 mi North 9.2 mph - 0.03 in Rain Rain
7:30 AM 46.0 °F 42.5 °F 44.1 °F 93% 30.16 in 2.5 mi North 6.9 mph - 0.04 in Rain Rain
7:39 AM 46.0 °F 43.9 °F 44.1 °F 93% 30.16 in 3.0 mi Variable 4.6 mph - 0.04 in Rain Light Rain
7:53 AM 46.0 °F 42.5 °F 44.1 °F 93% 30.16 in 5.0 mi North 6.9 mph - 0.05 in Rain Light Rain
8:53 AM 46.9 °F - 44.1 °F 90% 30.17 in 9.0 mi North 8.1 mph - 0.00 in   Overcast
9:53 AM 46.9 °F - 44.1 °F 90% 30.18 in 7.0 mi North 10.4 mph - 0.01 in Rain Light Rain
10:53 AM 46.9 °F - 44.1 °F 90% 30.18 in 3.0 mi North 9.2 mph - 0.01 in Rain Light Rain
11:01 AM 46.9 °F - 44.1 °F 90% 30.18 in 1.8 mi North 8.1 mph - 0.01 in Rain Light Rain
11:15 AM 46.9 °F - 45.0 °F 93% 30.18 in 2.5 mi North 6.9 mph - 0.02 in Rain Light Rain
11:38 AM 46.9 °F - 44.1 °F 90% 30.16 in 3.0 mi North 9.2 mph - 0.03 in Rain Light Rain
11:53 AM 46.9 °F - 45.0 °F 93% 30.15 in 4.0 mi North 10.4 mph - 0.03 in Rain Light Rain
12:53 PM 46.0 °F 41.4 °F 43.0 °F 89% 30.15 in 8.0 mi North 9.2 mph - 0.00 in   Overcast
1:53 PM 45.0 °F 39.3 °F 42.1 °F 90% 30.14 in 6.0 mi North 11.5 mph - N/A   Overcast
2:10 PM 45.0 °F 40.1 °F 42.1 °F 90% 30.16 in 7.0 mi North 9.2 mph - N/A   Overcast
2:53 PM 45.0 °F 39.3 °F 42.1 °F 90% 30.15 in 5.0 mi North 11.5 mph - 0.01 in Rain Light Rain
3:20 PM 45.0 °F 40.1 °F 42.1 °F 90% 30.15 in 4.0 mi North 9.2 mph - 0.00 in Rain Light Rain
3:34 PM 44.1 °F 39.0 °F 41.0 °F 89% 30.16 in 2.5 mi North 9.2 mph - 0.00 in Rain Light Rain
3:44 PM 44.1 °F 38.1 °F 42.1 °F 93% 30.16 in 3.0 mi North 11.5 mph - 0.01 in Rain Light Rain
3:53 PM 44.1 °F 37.4 °F 41.0 °F 89% 30.16 in 4.0 mi North 13.8 mph - 0.01 in   Overcast
4:03 PM 44.1 °F 38.1 °F 41.0 °F 89% 30.16 in 6.0 mi North 11.5 mph 19.6 mph N/A   Overcast
4:12 PM 45.0 °F 39.7 °F 41.0 °F 86% 30.16 in 8.0 mi North 10.4 mph - N/A   Overcast
4:53 PM 44.1 °F 39.0 °F 39.9 °F 85% 30.18 in 7.0 mi North 9.2 mph - N/A   Overcast
5:53 PM 43.0 °F 36.4 °F 39.0 °F 86% 30.19 in 9.0 mi North 12.7 mph - N/A   Overcast
6:50 PM 42.8 °F 36.2 °F 37.4 °F 81% 30.21 in 10.0 mi North 12.7 mph 20.7 mph N/A   Overcast
6:53 PM 43.0 °F 36.4 °F 37.9 °F 82% 30.21 in 10.0 mi North 12.7 mph 20.7 mph N/A   Overcast
7:18 PM 43.0 °F 35.7 °F 37.0 °F 80% 30.21 in 10.0 mi North 15.0 mph 23.0 mph N/A   Overcast
7:53 PM 42.1 °F 34.9 °F 36.0 °F 79% 30.21 in 10.0 mi North 13.8 mph 24.2 mph N/A   Overcast
8:53 PM 42.1 °F 35.7 °F 35.1 °F 76% 30.23 in 10.0 mi North 11.5 mph - N/A   Overcast
9:53 PM 41.0 °F 35.8 °F 33.1 °F 73% 30.23 in 9.0 mi North 8.1 mph - N/A   Overcast
10:46 PM 41.0 °F 34.7 °F 33.1 °F 73% 30.24 in 9.0 mi North 10.4 mph 17.3 mph N/A   Overcast
10:53 PM 41.0 °F 34.7 °F 33.1 °F 73% 30.24 in 9.0 mi North 10.4 mph - N/A   Overcast
11:53 PM 39.9 °F 33.4 °F 32.0 °F 73% 30.23 in 9.0 mi North 10.4 mph 20.7 mph N/A   Partly Cloudy